Cape Mele, Italy

10:35 AM CET on February 27, 2017 (GMT +0100)
Capo Mele

Weather History for LIMU - January, 2013

Change the Weather History Date:

Friday, January 25, 2013

  Actual Average Record
Temperature  
Mean Temperature 50 °F -  
Max Temperature 56 °F 52 °F 62 °F (1997)
Min Temperature 42 °F 43 °F 32 °F (2000)
Degree Days  
Heating Degree Days 15    
Moisture  
Dew Point 28 °F    
Average Humidity 43    
Maximum Humidity 66    
Minimum Humidity 27    
Precipitation  
Precipitation 0.00 in 0.10 in - ()
Sea Level Pressure  
Sea Level Pressure 29.66 in    
Wind  
Wind Speed 13 mph ()    
Max Wind Speed 22 mph    
Max Gust Speed -    
Visibility 12.0 miles    
Events      
Averages and records for this station are not official NWS values.
T = Trace of Precipitation, MM = Missing Value Source: Averaged Metar Reports

Daily Weather History Graph

Daily Weather History Graph

Search for Another Location

Airport or City:

Trip Planner

Search our weather history database for the weather conditions in past years. The results will help you decide how hot, cold, wet, or windy it might be!

Date:

Astronomy

Jan. 25, 2013 Rise Set
Actual Time 7:51 AM CET 5:28 PM CET
Civil Twilight 7:20 AM CET 5:59 PM CET
Nautical Twilight 6:45 AM CET 6:34 PM CET
Astronomical Twilight 6:11 AM CET 7:08 PM CET
Moon 4:09 PM CET (1/25) 6:20 AM CET (1/25)
Length of Visible Light 10h 39m
Length of Day
9h 36m
Waxing Gibbous, 97% of the Moon is Illuminated
Jan 25
Waxing Gibbous
Jan 27
Full
Feb 3
Last Quarter
Feb 10
New
Feb 17
First Quarter

Hourly Weather History & Observations

Time (CET) Temp. Windchill Dew Point Humidity Pressure Visibility Wind Dir Wind Speed Gust Speed Precip Events Conditions
12:55 AM 48.2 °F - 28.4 °F 46% 29.56 in - North 18.4 mph - N/A   Clear
1:00 AM 48 °F - 29 °F 35% 29.59 in 12 mi North 18.4 mph - -   Mostly Cloudy
1:55 AM 48.2 °F - 28.4 °F 46% 29.56 in - North 19.6 mph - N/A   Clear
2:55 AM 46.4 °F 39.5 °F 26.6 °F 46% 29.56 in - North 17.3 mph - N/A   Clear
3:55 AM 46.4 °F 38.5 °F 26.6 °F 46% 29.56 in - North 21.9 mph - N/A   Clear
4:55 AM 46.4 °F 39.0 °F 26.6 °F 46% 29.59 in - North 19.6 mph - N/A   Clear
5:55 AM 44.6 °F 36.9 °F 24.8 °F 46% 29.59 in - North 18.4 mph - N/A   Clear
6:55 AM 46.4 °F 39.5 °F 24.8 °F 43% 29.62 in - North 17.3 mph - N/A   Clear
7:00 AM 46 °F - 24 °F 30% 29.64 in 12 mi North 17.3 mph - -  
7:55 AM 44.6 °F 38.4 °F 24.8 °F 46% 29.65 in - North 12.7 mph - N/A   Clear
8:55 AM 46.4 °F 40.1 °F 24.8 °F 43% 29.65 in - North 15.0 mph - N/A   Clear
9:55 AM 50.0 °F - 24.8 °F 37% 29.68 in - North 12.7 mph - N/A   Clear
10:55 AM 53.6 °F - 26.6 °F 35% 29.68 in - North 12.7 mph - N/A   Clear
12:55 PM 55.4 °F - 32.0 °F 41% 29.71 in - NE 11.5 mph - N/A   Clear
1:00 PM 56 °F - 31 °F 27% 29.71 in 12 mi NE 11.5 mph - -   Clear
1:55 PM 55.4 °F - 30.2 °F 38% 29.68 in - NE 11.5 mph - N/A   Clear
2:55 PM 53.6 °F - 30.2 °F 41% 29.68 in - SE 3.5 mph - N/A   Clear
3:55 PM 53.6 °F - 28.4 °F 38% 29.68 in - South 5.8 mph - N/A   Clear
4:55 PM 55.4 °F - 30.2 °F 38% 29.68 in - SSW 6.9 mph - N/A   Clear
5:55 PM 48.2 °F - 28.4 °F 46% 29.71 in - SW 10.4 mph - N/A   Clear
6:55 PM 48.2 °F - 32.0 °F 54% 29.71 in - WSW 9.2 mph - N/A   Clear
7:00 PM 47 °F - 33 °F 46% 29.73 in 12 mi WSW 9.2 mph - -  
7:55 PM 46.4 °F 44.3 °F 35.6 °F 66% 29.71 in - WNW 4.6 mph - N/A   Clear
8:55 PM 44.6 °F 40.2 °F 28.4 °F 53% 29.74 in - North 8.1 mph - N/A   Clear
9:55 PM 44.6 °F 40.2 °F 21.2 °F 39% 29.74 in - North 8.1 mph - N/A   Clear
10:55 PM 44.6 °F 38.4 °F 19.4 °F 37% 29.77 in - North 12.7 mph - N/A   Clear
11:55 PM 42.8 °F 35.1 °F 23.0 °F 46% 29.77 in - North 16.1 mph - N/A   Clear